GFSCGP_sfc_thetae_057.txt.gz
Theta_e
304 299 296 298 299 298 296 295 294 296 299 301 301 301 302 312 313 312 312 313 314 317 320 321 322 323 325 326 326 327 327 326 324 322 320 320 321 323 323 321 321 319 317 314
299 297 301 299 299 298 297 295 295 297 299 298 296 297 299 308 311 311 312 312 313 316 319 320 321 322 322 324 325 325 326 325 324 324 323 323 322 322 323 321 319 318 315 314
297 299 300 300 298 297 297 295 295 295 297 297 296 293 296 303 309 312 313 314 315 316 318 320 320 321 323 322 324 324 325 325 324 324 321 319 319 318 317 317 318 316 314 312
298 300 299 298 297 298 293 298 298 296 295 291 296 289 293 297 303 308 311 313 314 316 318 321 322 321 322 322 325 325 325 325 324 322 321 319 319 319 318 317 317 316 311 309
296 297 297 296 297 299 297 299 298 297 294 294 292 291 295 295 296 303 310 314 316 317 318 320 322 324 324 324 323 325 325 324 324 322 322 321 320 322 316 315 315 314 313 311
297 302 300 299 300 300 300 298 296 295 293 288 291 291 293 295 297 299 305 312 316 317 318 320 323 325 323 323 323 324 324 323 323 322 321 320 320 317 313 313 312 312 311 309
296 297 300 302 298 300 298 295 289 287 287 286 293 290 295 298 300 302 303 306 314 317 317 317 320 321 322 320 322 323 323 323 323 322 320 318 317 317 315 314 310 311 309 307
290 289 297 301 299 297 296 295 290 282 284 287 292 289 295 301 302 303 304 304 305 314 317 316 318 321 321 320 321 322 322 323 322 321 320 317 316 317 317 313 310 310 310 308
290 290 299 301 302 300 296 293 296 289 288 287 290 293 297 299 301 303 304 304 305 307 314 314 316 319 320 319 321 322 322 322 322 321 322 318 317 317 315 310 311 312 311 305
296 290 297 300 302 300 298 299 292 291 284 282 286 288 291 296 299 301 302 305 306 306 306 310 313 316 318 320 322 322 323 322 323 322 321 320 318 318 315 312 311 308 305 302
296 294 293 298 296 295 295 294 292 293 290 285 283 288 297 297 300 301 303 304 306 306 309 309 311 315 318 321 321 321 321 322 322 322 321 320 319 318 314 310 307 304 300 300
298 295 290 293 298 299 298 296 295 291 287 287 286 288 298 298 298 298 302 304 307 310 310 312 312 316 319 320 321 321 322 322 322 321 319 319 317 313 310 306 303 301 299 300
298 292 287 289 294 298 296 296 295 293 291 287 287 290 298 299 300 300 300 303 304 308 313 313 314 316 318 320 321 321 320 320 320 317 316 312 310 308 306 303 301 301 301 301
300 293 291 287 291 294 293 294 295 295 289 290 289 293 297 299 298 301 301 300 301 301 308 313 314 315 317 318 319 318 318 317 313 310 309 307 306 305 304 303 301 301 302 299
300 292 292 292 292 293 294 294 293 293 294 291 294 291 297 298 299 298 298 300 304 305 306 308 311 314 316 316 315 314 311 309 308 307 306 304 304 302 302 302 301 297 297 296
297 292 292 291 292 292 291 293 294 294 293 293 293 292 298 298 298 298 299 303 303 303 304 306 307 310 312 311 310 307 307 307 309 307 304 302 301 300 298 297 296 296 296 295
295 292 290 288 290 291 287 292 292 293 294 295 291 297 297 296 296 297 299 300 299 299 300 302 302 304 306 306 305 304 305 305 304 303 301 298 297 296 296 294 294 293 293 297
293 292 289 286 285 282 294 295 296 295 295 295 294 295 295 296 296 296 296 297 295 295 296 297 299 299 300 301 301 300 300 299 298 296 295 295 294 293 296 296 296 296 296 295
296 291 286 286 286 289 291 293 294 294 294 296 295 294 295 296 297 294 293 293 293 293 292 293 295 296 296 297 297 297 296 296 294 293 294 295 295 295 296 295 294 295 295 294
292 292 292 284 284 282 292 295 296 297 289 296 296 295 296 296 294 297 292 292 291 292 292 292 293 294 294 295 296 295 294 294 294 296 297 298 297 296 295 294 293 294 294 292
288 287 287 283 287 288 293 296 297 289 293 297 297 298 298 296 296 294 291 290 291 291 291 293 293 292 293 295 296 294 295 294 296 297 295 293 292 292 293 292 292 291 291 290
290 287 286 285 285 285 297 294 292 299 297 298 298 298 298 292 291 290 290 290 290 290 291 292 292 292 294 296 296 294 292 293 293 291 290 290 290 289 289 290 290 289 289 288
290 293 291 292 293 299 297 300 299 298 299 298 299 299 294 291 290 290 289 289 289 290 290 292 291 290 291 292 292 289 289 290 290 289 288 288 288 288 288 288 287 287 287 286
294 297 294 294 296 297 298 299 299 299 299 299 300 297 294 291 290 289 288 288 288 289 289 290 289 287 287 288 288 287 287 288 288 287 286 286 285 284 285 284 284 284 283 283
295 297 294 293 296 297 299 299 298 297 297 295 295 295 293 291 289 288 288 288 288 289 288 288 287 286 286 285 284 284 284 286 285 284 283 282 282 281 281 282 282 281 282 282
297 295 293 293 299 300 300 300 297 296 295 294 292 291 292 291 289 289 288 288 288 287 287 287 285 283 282 281 281 282 283 282 282 280 280 279 280 280 280 279 279 280 280 280

GFSCGP_sfc_thetae_060.txt.gz
Theta_e
309 303 300 301 302 303 301 299 297 300 304 305 303 304 305 314 316 316 316 316 318 320 323 326 326 328 327 326 327 328 329 331 333 331 326 324 324 326 329 331 333 331 330 328
304 300 304 305 304 302 301 298 298 301 303 302 302 302 305 309 314 316 316 315 316 319 322 324 326 326 328 326 327 328 330 333 332 330 327 325 325 327 328 331 331 331 328 327
300 302 305 304 302 301 301 299 298 298 302 304 302 299 301 306 312 315 317 318 317 318 320 323 324 326 327 327 328 328 330 332 332 332 328 326 326 327 327 327 327 328 326 324
302 306 302 302 301 302 298 303 301 299 298 294 302 292 299 303 306 310 314 318 319 319 320 323 325 326 327 328 329 329 330 331 331 333 328 325 322 320 325 327 328 328 325 323
299 302 301 300 301 303 299 303 302 301 299 298 297 295 299 301 301 306 312 315 319 321 321 322 325 326 328 329 330 330 329 330 332 331 330 327 324 323 326 328 326 325 322 318
302 306 304 303 304 304 305 302 301 302 299 292 296 295 297 299 301 304 308 314 317 320 322 323 324 328 329 331 331 331 330 330 331 331 331 330 328 326 325 324 323 323 322 319
300 301 304 305 302 304 303 300 292 291 291 290 297 295 298 303 305 306 307 310 314 319 322 323 323 325 328 330 331 331 331 329 331 332 331 331 330 328 324 322 323 321 318 315
294 292 300 305 303 300 301 300 293 285 287 290 296 291 298 305 307 309 311 311 311 313 321 323 324 325 327 329 330 331 329 329 330 331 330 330 329 327 323 321 323 322 315 310
295 294 302 304 305 304 300 297 301 294 294 293 294 297 303 304 305 308 308 310 312 312 317 321 324 326 328 329 330 330 329 328 329 330 330 328 327 324 320 322 322 320 314 312
300 293 301 303 306 305 303 304 295 297 286 285 291 292 295 299 303 304 305 308 311 313 314 317 320 324 327 329 330 332 331 330 331 331 329 325 324 324 323 321 321 317 313 315
302 299 298 302 300 299 300 298 299 299 296 289 287 292 302 301 304 306 308 309 311 313 315 315 318 320 323 327 328 328 329 329 329 329 329 324 323 323 323 321 317 314 313 311
303 299 294 296 302 304 303 301 301 294 291 294 294 292 305 306 306 305 306 308 312 314 316 318 318 319 321 323 325 326 327 327 327 328 327 323 323 321 321 318 313 311 307 303
303 297 292 293 298 302 299 301 301 300 298 293 292 293 305 305 305 307 307 308 309 312 316 318 319 320 321 323 324 325 326 326 327 325 322 320 319 317 313 308 304 302 301 300
304 299 295 291 294 298 296 298 300 299 294 294 295 296 301 304 305 307 308 308 308 308 309 317 319 321 323 324 325 324 323 322 319 317 314 310 309 307 304 303 302 301 302 301
304 296 298 298 298 298 297 297 298 296 297 294 296 296 301 304 306 307 306 306 309 310 310 312 318 321 323 324 324 320 315 312 311 309 308 307 306 305 303 302 301 302 302 299
303 296 298 295 298 297 295 297 298 298 298 299 299 298 306 307 306 304 305 307 308 309 310 312 315 319 318 319 318 317 315 314 312 308 305 303 303 302 301 301 302 303 301 299
300 298 296 291 296 295 290 296 298 299 301 301 296 302 306 305 304 304 306 307 307 307 309 310 312 314 314 314 314 313 312 312 310 306 304 304 305 304 303 302 298 295 296 295
300 299 298 292 291 286 297 302 303 300 301 303 303 303 305 305 305 305 307 307 305 306 306 308 309 310 310 311 310 310 309 307 305 303 303 302 301 299 298 299 298 297 297 296
304 300 294 292 290 295 295 297 299 299 299 305 303 305 304 303 303 300 302 305 304 304 304 305 307 307 308 307 307 306 304 302 300 300 301 301 301 300 298 297 297 297 297 297
300 300 298 291 290 288 297 303 305 304 295 305 304 304 303 302 299 303 301 301 300 302 302 303 304 305 305 305 305 303 301 301 301 301 300 301 302 300 297 295 295 299 299 297
293 293 293 292 292 296 301 301 303 293 297 306 306 305 304 302 305 304 301 300 301 301 301 302 303 302 303 303 303 301 301 300 300 301 299 298 296 297 297 296 296 296 295 294
294 293 292 294 291 289 301 299 298 305 307 308 307 307 306 304 301 299 299 298 298 298 299 300 300 300 302 303 302 300 298 299 299 297 294 294 294 293 293 294 294 294 294 292
295 298 297 296 298 305 304 307 308 308 308 306 308 307 308 300 298 298 297 297 297 298 299 300 299 299 299 299 299 296 295 296 295 294 293 292 292 292 291 291 291 290 289 287
299 301 298 298 303 303 304 306 306 306 306 306 307 307 304 300 299 297 296 296 296 297 297 297 295 294 293 294 294 293 293 294 293 291 290 290 287 288 287 287 287 286 286 285
302 301 300 301 305 302 304 306 308 306 305 305 306 306 303 301 298 296 295 295 296 296 296 296 294 292 291 291 290 290 291 291 289 288 286 286 286 285 286 285 284 284 284 282
302 301 299 299 306 306 308 308 310 306 305 304 304 302 302 300 297 296 295 296 295 294 294 293 291 289 287 286 285 285 287 288 286 284 284 283 284 284 284 284 284 280 279 279

GFSCGP_sfc_thetae_066.txt.gz
Theta_e
305 299 297 301 303 303 302 299 298 301 305 304 302 303 306 309 311 313 314 315 316 316 320 323 322 320 318 320 320 320 320 324 325 322 322 321 322 322 322 323 325 330 330 330
301 297 303 305 305 302 301 299 298 302 305 302 301 301 306 309 310 311 313 314 316 317 318 319 320 319 319 320 322 322 323 325 324 324 323 322 322 322 322 324 325 329 330 330
299 302 306 304 303 300 300 298 298 299 302 303 301 298 302 306 310 311 314 315 317 317 317 319 319 320 321 321 322 322 322 323 324 325 324 323 322 321 321 322 324 329 330 329
301 305 304 302 301 302 297 303 302 300 298 293 302 290 300 303 305 309 311 314 314 317 318 319 320 319 320 321 323 323 323 322 324 327 324 322 318 316 319 320 323 328 330 328
299 302 301 300 300 304 300 305 303 301 298 298 298 295 299 303 301 304 310 314 315 316 318 318 319 322 322 323 323 324 325 324 325 326 326 324 320 320 320 322 322 326 326 326
302 307 305 303 305 305 305 302 302 301 298 291 296 296 295 299 302 305 310 314 316 316 318 320 322 323 324 325 325 325 325 325 326 327 327 326 323 321 319 320 321 325 325 325
299 300 305 305 301 304 303 298 291 290 290 290 299 296 298 303 305 307 307 313 316 317 317 318 321 323 324 325 326 326 326 324 326 328 328 326 328 324 323 321 322 324 323 321
292 291 301 305 302 299 300 298 292 285 285 291 298 292 297 305 308 308 309 312 314 316 318 318 318 323 324 325 327 327 327 325 326 327 329 329 328 329 326 326 325 323 322 322
293 293 303 304 305 303 300 297 302 295 296 292 293 299 303 305 305 306 307 310 312 313 316 319 320 321 324 325 326 328 327 327 327 327 328 328 330 328 328 328 326 323 323 323
298 294 301 303 305 304 301 305 296 297 286 286 291 293 295 300 302 305 305 308 311 315 317 317 320 322 323 326 327 329 329 328 329 329 329 329 330 331 330 328 325 324 323 317
301 298 298 302 299 297 299 298 301 299 296 290 289 292 303 302 304 304 307 308 311 313 315 317 319 323 324 325 327 329 329 329 329 329 329 329 331 328 326 323 322 322 320 318
302 300 295 297 303 304 302 300 301 295 293 296 294 293 305 305 307 307 307 309 312 313 314 317 319 321 322 325 326 329 330 330 330 331 329 329 328 325 322 319 318 318 314 313
302 296 292 293 299 302 298 301 301 302 300 295 291 293 306 306 306 308 309 309 310 312 313 316 318 319 320 323 326 327 328 328 329 327 327 326 322 319 311 308 307 306 305 304
304 300 296 291 295 299 296 298 302 301 294 296 296 297 303 304 305 306 308 309 310 311 312 313 316 319 321 324 325 326 325 324 321 320 315 310 308 306 304 303 304 302 302 302
305 296 299 298 299 299 298 297 298 296 298 295 297 297 301 304 305 307 311 310 309 310 311 313 315 319 322 323 320 319 317 316 314 310 307 305 306 304 303 302 302 302 301 301
303 296 298 296 299 298 297 299 299 298 298 298 299 299 305 306 307 306 308 309 309 310 313 314 316 320 323 319 314 312 310 309 309 305 304 304 303 303 302 302 300 299 298 298
299 297 295 291 297 296 290 297 298 299 301 300 295 301 305 304 305 307 308 308 309 312 313 314 317 322 319 316 313 310 307 307 306 305 304 304 304 302 301 301 299 298 297 298
300 298 296 291 291 285 297 303 302 300 301 302 302 303 304 305 307 309 311 310 311 313 313 316 319 319 317 315 313 311 310 308 307 306 306 305 304 303 302 301 301 299 297 295
302 300 292 289 290 294 297 300 300 299 298 304 302 304 305 306 309 308 311 313 313 313 314 316 317 316 316 314 314 312 310 309 308 306 305 304 303 302 301 299 297 297 297 297
300 303 297 294 287 285 297 303 306 305 293 304 305 305 305 307 301 305 310 313 312 313 313 313 314 313 312 311 310 308 306 305 304 303 303 303 303 301 299 299 298 298 299 298
293 295 292 291 290 295 302 304 305 293 296 307 308 308 308 306 308 310 310 311 311 311 310 312 311 309 309 309 308 305 305 303 304 304 303 302 301 300 300 299 299 298 294 294
292 292 291 293 289 287 306 304 297 303 309 311 310 310 312 310 309 309 309 308 308 307 308 309 308 307 307 308 307 304 303 304 303 303 300 299 299 298 297 294 293 293 293 290
291 297 295 297 296 307 306 306 309 312 312 311 312 312 312 310 308 307 306 306 306 306 306 308 306 305 306 307 306 302 302 302 300 298 296 295 295 294 294 292 290 289 288 285
301 304 298 297 303 305 308 308 310 310 310 312 312 313 312 310 308 306 306 305 305 305 305 306 305 304 303 305 304 302 300 299 297 294 293 292 290 289 288 288 287 287 284 283
299 302 300 299 303 304 305 306 309 310 312 312 311 311 310 311 307 306 305 304 304 304 304 304 303 303 302 301 299 299 298 297 294 292 290 287 287 287 286 283 283 282 280 280
300 298 297 298 304 306 306 309 310 309 310 312 310 309 310 312 308 307 305 305 304 304 303 303 302 299 297 296 295 295 296 294 290 288 287 286 285 284 285 283 281 282 280 281

GFSCGP_sfc_thetae_072.txt.gz
Theta_e
299 293 291 293 294 295 294 292 291 295 300 299 297 295 300 302 306 306 309 309 311 313 315 314 313 313 314 316 317 318 317 317 318 315 314 315 314 314 315 318 320 321 321 321
296 292 298 298 297 295 294 292 292 296 300 297 294 292 299 303 305 307 310 310 310 312 313 313 312 311 312 313 314 314 316 315 316 315 313 316 314 313 317 316 319 321 320 321
293 297 301 298 295 294 294 292 293 293 296 296 293 290 297 303 305 307 309 310 311 312 312 313 312 310 312 312 312 312 315 314 315 316 313 314 314 313 313 313 315 320 321 321
294 300 299 296 295 296 291 298 297 295 293 287 292 284 294 298 301 304 307 308 310 313 314 314 313 311 311 311 312 312 313 312 315 317 314 314 313 313 314 314 314 318 322 321
293 296 296 295 296 300 295 300 299 297 293 289 290 286 291 297 296 300 305 308 311 314 313 313 312 313 312 310 310 310 312 313 315 318 316 316 314 316 314 313 313 316 321 323
294 300 299 298 301 300 302 298 297 294 291 284 289 289 288 292 297 299 306 309 311 313 314 314 313 313 309 309 310 310 311 313 316 318 317 316 315 312 312 314 313 315 320 322
292 293 298 299 295 299 298 291 284 283 282 282 295 291 292 297 300 301 306 309 311 314 314 313 311 310 310 309 310 312 313 313 316 318 318 317 315 313 313 313 314 314 318 320
286 284 294 299 296 295 294 293 286 281 280 284 294 288 293 300 303 303 305 310 312 312 313 314 313 312 311 312 313 314 314 315 317 318 318 319 318 317 316 314 315 316 317 320
286 287 297 299 300 299 294 290 296 290 290 284 289 295 298 299 298 300 301 307 309 311 312 313 314 314 314 314 315 316 316 316 317 317 317 317 318 319 318 317 314 317 318 320
292 287 295 297 301 300 297 299 291 292 283 281 287 289 290 295 297 297 299 303 306 310 312 314 315 315 316 316 317 317 318 317 317 318 317 317 317 319 320 317 315 317 316 316
296 291 291 297 295 293 294 293 295 296 291 283 281 286 295 297 298 298 298 301 303 307 308 311 314 316 317 317 317 317 317 317 318 319 319 318 319 320 320 318 318 319 318 318
297 292 287 290 298 300 296 295 294 288 288 291 285 286 298 299 300 299 299 302 303 305 306 309 313 315 316 317 317 317 318 318 319 321 322 321 320 320 320 320 320 321 319 317
295 290 285 287 294 297 294 296 296 297 294 289 284 287 299 299 299 300 298 300 303 305 305 307 308 310 314 318 318 319 320 321 323 323 322 321 321 321 320 321 319 315 314 315
299 292 289 284 288 294 291 295 296 295 287 289 289 294 297 298 298 299 299 300 301 304 306 306 307 310 315 316 317 319 320 322 322 318 316 316 314 315 317 315 313 311 311 307
297 289 291 292 295 295 294 294 295 293 293 290 293 294 297 298 299 300 300 301 300 301 305 307 307 313 312 313 313 313 312 310 313 310 309 306 306 306 305 305 304 304 304 304
297 289 292 289 294 295 292 295 296 296 294 295 295 294 301 302 299 300 301 302 300 302 302 305 310 313 311 310 310 310 309 308 309 307 304 304 304 303 303 301 300 300 300 300
293 291 288 284 293 292 287 292 295 295 296 295 290 296 301 300 300 298 300 301 301 302 307 311 313 314 310 310 309 307 307 308 306 305 304 303 303 301 300 300 299 298 298 298
294 291 289 282 287 281 291 299 299 297 298 298 296 297 298 299 299 298 300 301 303 305 309 312 313 310 308 308 307 307 307 306 305 304 303 303 302 300 300 299 298 297 297 296
297 294 285 283 284 289 292 296 297 295 294 299 296 297 298 297 299 298 301 303 306 305 311 311 311 308 306 305 306 306 305 305 304 303 302 302 301 299 299 297 296 295 294 295
297 295 289 283 281 278 289 298 302 300 289 300 299 298 298 298 291 295 303 306 306 309 311 309 308 308 306 305 305 304 303 303 302 303 302 302 300 300 297 296 295 293 294 295
285 286 283 281 281 286 296 300 302 289 289 300 302 300 298 296 298 300 305 306 308 310 310 310 309 307 305 305 304 302 302 302 303 303 301 300 298 296 295 294 294 293 292 290
288 285 284 283 280 281 300 299 293 296 300 301 301 302 301 300 301 303 305 305 306 307 307 308 306 304 305 305 303 300 298 300 300 299 297 296 296 296 295 293 292 290 288 284
286 289 287 288 287 297 302 302 303 303 301 302 303 304 304 301 301 303 303 304 305 305 304 304 302 300 301 301 301 298 298 298 297 297 295 295 294 293 291 289 287 286 285 283
292 297 291 291 295 299 301 304 305 305 303 305 304 304 304 302 301 302 302 301 301 301 301 302 301 300 298 299 299 298 297 297 295 291 291 289 285 284 284 284 283 282 280 280
289 295 293 292 296 300 301 304 304 306 305 304 305 304 302 303 302 301 301 301 301 299 300 301 299 298 296 297 295 296 294 293 290 288 285 283 282 282 280 279 279 279 280 280
295 294 290 289 299 298 299 302 306 303 301 304 305 304 302 304 302 301 299 299 300 298 299 295 294 291 288 289 290 292 292 289 286 284 282 282 281 280 280 279 279 282 282 282

GFSCGP_sfc_thetae_075.txt.gz
Theta_e
298 292 290 293 293 293 292 290 288 292 297 294 294 293 298 300 305 304 308 310 310 312 314 315 316 316 316 316 317 318 317 317 317 316 315 314 314 317 318 321 320 320 319 318
294 290 297 296 295 294 292 289 289 293 297 294 293 293 296 300 302 305 306 307 309 312 313 311 310 314 314 314 316 317 315 316 317 317 317 317 315 315 316 317 318 320 319 319
291 294 299 297 294 292 292 290 290 291 294 294 292 290 295 300 303 304 306 309 310 311 310 311 310 310 313 313 315 315 315 315 317 316 313 315 315 314 313 312 315 317 319 319
292 297 296 294 293 293 288 295 295 293 290 285 291 283 289 296 300 302 305 305 307 310 312 311 310 308 309 312 313 313 314 314 315 315 311 312 311 310 312 313 313 316 318 318
290 293 293 292 294 296 292 297 295 294 290 288 288 285 289 294 295 298 303 305 306 310 312 311 310 310 310 312 312 311 312 314 315 315 312 311 309 310 311 312 312 312 316 318
292 297 297 295 298 298 300 296 294 292 289 283 288 287 286 290 295 298 301 305 307 309 312 312 312 312 311 309 310 310 310 310 313 314 314 311 311 311 311 310 311 311 313 317
290 292 295 298 294 297 295 290 283 281 281 281 291 288 290 295 297 300 301 304 306 310 311 312 311 310 311 308 308 309 309 309 311 313 315 314 313 312 312 313 313 312 312 315
285 283 292 296 295 291 292 291 283 280 279 282 291 287 291 299 300 301 303 306 308 309 312 312 312 310 310 308 307 308 309 309 310 312 314 316 315 315 314 314 315 314 314 315
285 285 294 296 297 297 291 288 295 288 287 283 287 292 297 299 297 299 300 305 306 309 312 312 313 311 310 308 307 308 309 309 311 312 314 316 316 315 315 314 312 314 313 315
291 284 293 295 297 297 295 298 289 288 281 280 285 287 289 294 296 296 297 302 306 310 311 313 314 313 312 310 309 309 310 311 312 313 315 316 317 317 317 315 313 312 314 315
292 289 288 294 292 290 292 291 293 293 288 281 280 284 294 296 297 296 297 301 306 308 310 312 313 315 314 313 312 312 312 313 314 315 316 315 314 314 316 316 314 315 316 316
293 290 286 289 295 297 295 292 295 286 286 287 283 286 297 298 298 296 297 300 305 308 310 312 313 313 314 314 314 313 314 315 317 318 319 317 318 317 317 317 317 317 318 318
294 288 282 286 291 295 292 293 294 294 293 286 282 287 298 298 298 299 297 298 301 306 307 309 312 313 313 314 314 315 316 316 317 319 319 319 319 318 318 317 318 318 319 319
299 290 288 284 286 292 290 293 295 293 286 287 288 291 297 299 297 299 298 298 299 301 305 307 308 310 313 314 315 315 315 316 317 318 318 318 318 318 318 318 318 319 320 317
296 288 289 291 293 295 294 293 294 290 292 289 291 293 297 299 299 299 299 299 299 300 302 305 307 308 310 310 312 313 314 315 318 317 317 316 312 312 312 314 316 312 311 310
297 289 291 288 292 294 292 294 293 292 293 292 293 293 298 301 299 298 300 299 299 299 301 304 306 311 310 311 309 310 311 310 312 310 311 308 308 307 305 304 303 302 302 302
293 289 287 284 291 292 285 290 293 293 294 294 289 294 299 298 299 299 299 299 300 300 301 304 308 312 310 309 311 311 309 310 309 308 306 305 305 303 302 302 301 300 301 300
292 291 286 283 287 279 290 297 297 295 296 298 296 296 297 299 302 300 300 300 300 300 300 303 308 310 308 309 310 308 309 308 307 306 306 305 304 302 301 300 299 298 297 296
297 293 286 282 282 287 290 295 295 293 293 299 298 298 297 297 297 297 301 299 301 302 304 307 309 308 309 309 308 307 307 306 305 304 304 304 302 300 299 298 296 296 296 296
295 295 289 285 280 276 288 296 300 299 287 299 299 298 297 296 291 294 299 300 301 303 308 307 306 307 307 307 308 306 305 305 303 303 302 302 301 300 298 296 295 296 297 296
285 284 284 284 283 286 294 298 301 288 288 300 300 300 300 295 297 299 299 303 305 308 308 307 306 305 305 306 307 305 304 303 304 303 301 301 300 298 297 296 295 295 295 291
285 283 279 283 281 281 298 298 292 296 299 302 301 300 301 300 299 300 301 304 306 307 306 306 304 303 304 304 303 302 302 303 303 301 299 297 297 296 295 294 293 291 289 285
284 288 285 289 286 296 300 300 302 303 301 301 302 302 303 302 300 300 302 304 305 306 305 305 304 302 302 302 302 298 298 300 299 297 296 295 294 293 291 291 287 285 285 283
288 295 290 291 295 298 300 302 304 304 303 303 302 302 302 302 302 300 301 302 302 302 302 302 301 299 297 299 299 298 297 297 296 293 290 289 287 285 285 285 285 284 283 283
288 293 293 293 296 299 299 300 301 303 305 302 303 303 303 302 302 302 301 301 301 300 300 301 299 296 295 297 296 297 296 294 289 287 286 284 283 281 280 281 282 281 281 283
291 290 288 287 295 296 296 300 303 302 303 302 302 303 303 303 302 300 299 299 299 298 297 294 291 291 291 291 290 291 291 289 286 284 283 282 281 280 280 279 279 282 282 282

GFSCGP_sfc_thetae_078.txt.gz
Theta_e
295 290 288 292 293 292 290 288 287 289 293 292 291 290 294 296 303 302 306 308 309 311 313 315 316 315 316 317 318 319 317 318 318 318 317 317 317 319 320 320 319 316 316 316
291 289 295 296 295 293 291 288 288 291 294 293 291 292 294 297 299 303 304 307 308 310 313 315 315 315 315 316 317 317 317 317 317 317 319 318 316 317 320 320 319 319 316 315
290 292 297 295 292 291 291 289 289 288 291 292 290 289 291 296 300 302 303 306 309 311 312 313 313 313 314 314 316 317 316 317 317 318 317 315 315 316 315 314 316 317 318 316
291 296 294 293 292 293 287 293 293 291 288 283 290 282 289 292 296 300 301 303 307 310 312 312 312 311 312 313 315 317 316 316 317 317 316 313 314 314 315 313 315 316 317 318
289 291 292 291 292 294 291 294 292 291 288 285 287 283 287 291 293 296 300 302 305 310 311 311 311 311 312 313 313 313 314 314 316 315 315 313 311 312 313 313 313 313 316 317
291 295 294 293 296 296 298 293 292 291 288 281 287 286 285 288 294 296 299 301 303 308 311 312 312 310 310 311 311 310 312 313 315 314 311 311 309 310 309 310 312 312 312 315
289 290 292 297 291 295 293 288 281 280 280 281 289 286 289 293 296 297 298 299 301 307 310 310 309 308 308 308 308 309 310 311 313 314 313 311 311 310 310 310 311 309 311 311
283 281 290 295 294 291 291 289 282 279 279 282 289 285 290 298 299 300 300 301 302 306 310 310 311 310 309 309 309 310 309 310 310 312 312 313 311 312 312 311 310 310 310 311
284 283 292 294 295 296 290 288 292 286 285 282 285 290 294 297 297 297 297 298 301 305 309 310 311 311 310 309 308 309 309 310 310 310 311 312 313 311 311 312 311 311 311 312
289 283 291 293 295 295 293 295 287 286 281 279 283 285 287 293 295 296 296 298 302 305 308 310 311 311 311 310 309 309 310 309 310 309 310 311 311 312 312 311 311 312 312 313
290 287 287 291 289 288 289 290 291 291 287 281 279 283 293 295 297 297 296 297 301 304 307 310 312 312 311 310 308 309 309 309 309 309 310 310 312 313 314 315 315 314 314 314
292 287 283 287 293 294 293 290 292 285 284 284 283 286 295 297 297 296 296 297 300 305 306 309 312 312 310 309 308 308 309 309 311 312 313 313 315 316 316 316 317 317 315 315
296 287 280 284 289 292 290 291 293 294 290 285 282 286 297 297 297 298 297 297 298 302 305 307 308 310 312 311 310 309 309 310 311 313 314 314 315 315 315 315 316 315 316 315
298 292 285 281 284 288 287 291 292 293 284 285 286 289 293 297 297 298 299 298 297 300 303 304 306 309 311 312 312 312 312 312 312 313 314 314 316 316 316 313 313 314 316 316
295 286 288 289 290 290 291 291 292 290 289 286 288 290 296 297 298 300 300 298 297 298 300 302 304 305 309 309 310 312 312 313 314 314 314 314 315 317 315 313 313 313 314 315
296 287 288 286 290 290 288 291 291 291 291 290 290 290 298 299 300 298 300 299 298 298 299 301 303 304 305 306 308 309 309 311 313 313 314 315 313 313 313 310 309 309 308 307
292 287 285 282 289 289 284 289 290 291 293 292 287 292 298 297 297 298 300 299 299 298 299 302 304 306 309 308 307 307 309 307 311 312 312 311 308 307 305 304 303 302 301 301
290 288 286 282 284 277 288 295 296 293 294 295 294 296 298 299 299 298 300 300 299 300 300 300 303 306 307 307 306 309 311 310 309 309 307 307 306 304 302 302 301 298 298 298
294 291 284 283 282 285 288 293 294 292 291 296 296 298 300 300 294 295 298 300 302 302 302 301 302 305 308 308 308 309 308 308 307 306 305 305 304 302 301 299 297 297 296 296
292 293 288 284 281 278 287 294 299 297 286 298 299 297 296 295 289 293 297 298 301 299 302 304 306 307 307 307 308 307 306 306 304 304 303 303 303 301 298 296 296 297 297 295
287 286 286 284 282 286 294 296 299 286 288 299 301 300 298 294 296 299 299 299 302 303 304 305 306 306 306 308 308 305 305 304 303 302 302 301 300 298 297 296 296 296 291 287
284 282 282 285 282 281 297 298 292 294 298 300 301 301 301 301 301 301 300 301 303 304 305 304 304 305 306 308 307 304 302 302 302 301 298 297 297 296 295 293 292 290 287 284
282 286 284 286 286 294 297 299 301 302 300 300 301 302 302 301 301 301 301 303 303 303 305 304 303 302 304 305 305 301 301 300 298 297 295 294 293 293 293 290 288 287 286 284
286 291 287 288 292 294 297 300 303 304 302 303 303 303 302 301 301 301 300 301 301 302 302 303 302 300 299 300 299 298 298 298 296 292 291 290 288 287 287 287 287 286 284 283
286 289 288 288 292 294 297 300 302 303 303 303 302 301 302 302 301 302 300 300 300 299 299 299 298 296 296 296 296 295 295 294 291 290 288 286 285 284 282 282 282 282 283 284
289 288 285 283 292 292 294 298 301 300 301 303 301 301 302 301 299 299 298 298 296 294 293 292 291 290 288 287 288 290 291 290 287 283 281 281 281 281 280 280 279 283 283 283

GFSCGP_sfc_thetae_081.txt.gz
Theta_e
299 295 292 295 297 295 294 292 291 294 297 296 295 295 298 302 305 305 309 312 314 315 318 319 317 317 317 319 319 318 317 318 319 318 319 319 318 320 320 321 320 321 320 318
294 292 296 297 297 296 294 292 292 295 297 296 296 295 300 301 303 307 308 311 314 316 316 316 317 317 316 317 319 319 318 318 319 319 319 320 319 320 320 321 320 320 321 319
291 294 298 296 294 293 294 293 293 292 294 297 295 293 297 301 303 305 309 312 315 316 315 315 315 315 315 316 318 318 318 318 318 320 319 318 318 318 318 318 318 321 321 320
293 297 295 294 293 295 290 296 295 293 292 287 295 287 294 299 300 303 306 309 312 315 318 317 315 315 315 316 319 319 319 318 319 319 318 317 316 315 317 317 318 320 322 321
292 293 292 292 293 296 292 297 295 295 292 290 290 288 293 296 297 301 305 307 311 315 318 317 316 316 315 316 317 318 319 319 319 319 318 317 317 318 319 319 320 322 323 322
293 297 296 295 297 297 298 295 294 293 291 285 289 290 291 296 299 301 304 306 309 312 316 318 318 317 314 315 315 317 317 319 320 319 320 318 319 319 317 317 320 321 322 323
290 292 296 298 293 297 296 292 285 284 284 283 293 290 293 299 300 302 304 306 307 312 315 316 316 313 312 313 313 314 315 317 319 318 318 319 319 320 319 320 321 321 321 321
284 282 292 297 295 292 293 292 286 280 282 286 291 288 293 302 304 304 305 306 306 310 314 316 316 316 314 312 312 313 315 316 318 318 317 317 319 318 318 318 320 319 321 321
284 284 293 295 298 297 292 289 295 288 289 287 290 294 299 302 301 302 303 303 305 308 312 315 316 317 316 314 313 313 316 317 318 318 319 318 317 318 318 318 319 320 320 319
291 285 293 294 296 298 296 297 288 290 281 281 287 289 291 297 299 301 303 304 305 308 312 314 315 316 317 316 316 316 317 316 317 318 319 318 318 319 319 319 319 319 320 320
292 290 290 293 291 290 291 291 293 293 290 284 283 288 299 300 301 302 303 304 304 308 311 314 316 317 317 317 315 315 316 316 316 316 317 318 318 319 320 319 319 319 321 321
295 290 285 288 295 296 295 292 293 289 287 289 289 289 300 302 303 302 303 303 303 307 312 314 316 316 316 316 315 314 315 315 317 316 316 316 318 319 318 317 319 321 321 321
293 290 283 285 290 293 291 294 294 294 293 290 288 290 301 301 302 304 303 306 305 305 310 314 315 315 315 315 314 314 314 316 316 316 315 314 315 315 315 316 318 321 321 320
296 289 287 283 286 290 289 292 294 294 288 289 290 293 298 300 301 304 304 305 306 304 308 312 314 316 316 315 315 314 314 316 316 314 315 314 314 316 315 315 318 320 320 320
295 285 288 290 291 292 291 291 293 292 293 290 292 293 297 301 302 304 303 304 304 304 304 308 312 314 316 316 315 315 315 315 315 315 315 315 317 317 318 319 319 320 320 320
293 286 288 286 291 292 289 292 292 293 293 293 293 293 301 303 304 303 304 303 304 305 304 306 308 310 313 314 316 315 315 315 315 314 315 316 317 318 318 319 319 318 317 319
287 287 286 283 289 288 285 290 292 293 295 295 291 297 302 301 301 303 303 303 303 305 304 304 307 309 311 313 315 315 316 316 315 315 315 316 317 317 318 318 314 314 314 309
287 287 287 283 286 280 291 296 296 294 296 298 297 299 301 302 303 303 305 304 304 304 306 305 305 308 312 313 313 315 315 316 316 316 316 317 316 314 309 308 307 303 302 301
290 287 284 282 283 285 291 295 295 294 294 299 298 299 300 303 301 303 303 303 302 305 307 308 308 308 312 313 313 313 313 314 314 313 311 310 310 307 306 304 300 299 298 298
289 289 287 285 281 278 289 296 300 300 290 299 300 300 300 299 296 299 302 305 304 305 304 304 306 310 312 312 313 312 310 310 308 308 308 308 307 305 302 299 298 298 297 293
285 287 283 284 283 288 295 298 301 288 292 301 303 302 301 299 302 305 305 305 305 308 308 308 309 309 311 312 312 309 309 306 305 305 303 302 301 299 298 297 296 293 290 287
286 284 284 285 283 281 298 299 293 299 302 303 303 303 303 304 303 305 304 305 307 306 305 308 308 307 308 310 310 307 304 303 303 301 299 298 297 297 296 293 291 289 287 285
283 289 287 289 289 297 299 301 304 304 303 305 304 305 306 305 304 305 304 304 304 304 304 305 305 305 306 307 306 301 300 300 298 296 295 294 294 293 292 290 288 287 286 285
288 293 291 291 293 294 297 300 302 303 303 306 306 305 305 304 303 303 304 302 302 303 303 302 301 299 298 300 301 300 299 298 296 293 292 291 289 288 288 288 288 287 285 284
289 291 290 290 293 296 297 299 300 300 300 302 305 305 304 303 303 303 302 300 299 299 300 300 298 296 295 296 296 297 297 297 293 291 289 287 286 284 283 283 284 283 284 285
292 290 289 288 293 293 295 298 298 297 298 301 303 302 300 303 300 298 295 294 293 292 292 291 289 288 287 289 290 291 293 292 288 285 285 284 283 283 283 282 281 284 283 283

GFSCGP_sfc_thetae_084.txt.gz
Theta_e
298 296 293 297 298 299 299 297 297 301 301 299 299 300 302 306 308 309 312 314 317 318 322 325 321 321 321 322 320 319 317 321 323 320 319 320 318 320 320 320 320 320 318 318
296 293 298 299 300 299 298 296 296 300 301 299 300 300 302 304 308 309 311 314 316 319 321 323 321 322 321 322 321 318 317 318 320 322 322 321 320 320 320 320 320 320 319 317
293 296 299 299 298 296 297 296 296 296 300 301 299 297 300 303 307 309 312 314 316 318 321 322 321 321 323 322 320 319 318 318 320 321 321 320 320 321 319 320 319 320 322 320
295 298 297 296 295 297 293 299 298 296 295 292 298 290 298 302 304 307 310 314 315 318 321 323 322 321 322 322 321 321 320 319 320 321 319 318 315 314 318 320 320 320 323 322
294 295 294 294 296 298 295 300 297 297 296 296 296 292 297 300 300 304 308 311 316 318 321 323 323 322 323 321 320 321 321 320 319 320 320 318 316 317 321 318 317 317 323 324
295 300 298 296 298 299 300 298 298 297 296 289 294 293 294 299 302 305 307 310 313 317 320 323 325 324 323 321 319 321 320 319 319 320 320 320 318 317 317 316 315 315 321 323
288 292 297 299 295 299 298 295 289 288 288 287 295 292 295 302 305 306 307 309 313 316 319 322 323 323 322 320 319 319 319 319 319 319 320 321 320 319 317 319 316 315 320 320
284 283 289 294 294 293 295 295 291 284 286 290 295 290 296 305 307 309 310 311 312 315 319 321 323 324 322 321 320 318 318 318 320 320 321 323 324 322 320 319 317 321 322 323
287 286 295 296 297 296 295 292 299 292 293 289 293 297 302 305 306 307 308 310 311 313 317 320 323 324 323 322 321 318 318 320 321 320 322 323 324 324 324 324 323 324 326 324
292 287 294 295 298 298 296 299 291 292 284 283 290 293 295 299 303 305 307 309 312 312 315 320 322 324 324 323 322 321 322 322 324 324 323 323 323 324 324 325 324 325 326 326
296 292 292 296 293 291 293 293 294 295 292 287 286 292 302 302 304 305 308 310 310 312 315 319 321 324 325 325 323 321 322 323 323 324 325 324 324 323 324 325 325 325 327 326
297 294 288 290 297 298 297 295 295 290 289 293 291 292 305 305 307 307 308 310 309 313 316 319 320 322 323 324 323 322 322 322 323 324 324 324 325 324 324 325 326 327 326 326
295 291 287 288 293 296 293 295 296 296 295 291 290 293 304 306 306 308 309 310 311 310 315 319 320 320 322 323 323 322 322 322 323 323 323 324 324 324 325 325 326 326 325 325
296 290 288 285 289 294 291 294 295 295 291 290 292 294 300 303 304 306 308 310 311 311 312 317 319 320 321 322 323 323 322 323 322 322 321 322 323 323 324 324 324 323 323 322
295 287 289 290 292 292 292 293 294 293 295 292 294 295 299 302 304 306 308 309 309 310 310 313 317 320 321 322 323 323 323 323 323 321 320 320 322 322 322 322 323 321 321 322
293 288 290 288 292 293 291 293 295 295 295 296 296 296 304 306 307 307 307 308 308 309 310 311 313 319 321 321 322 322 322 322 323 321 320 321 321 321 321 321 321 321 321 322
289 288 285 284 291 291 287 293 295 296 298 297 293 299 304 303 304 305 307 308 308 310 309 309 311 314 319 322 322 322 322 323 322 321 321 320 321 320 321 321 321 321 322 322
288 288 288 284 287 280 292 297 299 297 298 300 299 301 303 304 306 308 309 308 307 308 308 308 310 313 315 320 322 323 323 322 321 320 320 321 320 320 321 320 320 321 319 316
293 289 285 282 285 289 289 291 294 296 296 301 300 302 304 306 307 306 308 310 311 310 310 311 311 311 315 317 320 321 322 321 320 319 320 320 320 320 320 317 315 311 304 301
292 292 288 285 282 280 289 295 300 300 293 303 304 304 304 305 300 304 309 312 313 313 314 311 312 310 312 316 317 319 320 320 319 320 320 319 318 315 313 307 301 299 297 294
286 286 283 284 282 288 297 299 301 288 291 303 305 306 305 304 307 309 310 312 313 313 312 312 312 311 313 316 318 317 318 317 316 315 314 312 311 305 301 298 296 293 290 288
285 284 284 284 284 282 300 299 292 297 305 305 305 306 307 308 308 309 310 310 311 309 308 310 311 310 313 316 316 313 310 308 307 305 301 300 299 298 296 293 291 289 287 285
285 291 288 291 290 298 298 299 303 303 302 303 306 309 309 308 307 309 309 309 307 306 305 307 306 305 308 311 310 303 301 301 299 298 296 295 294 294 293 291 289 287 287 284
292 295 292 291 295 296 297 301 301 303 302 305 306 306 308 308 309 308 308 307 306 303 302 301 300 298 298 300 300 300 299 298 295 293 292 291 290 289 290 289 289 287 286 284
293 294 291 291 295 298 298 300 300 299 301 301 305 308 308 309 308 308 305 302 301 300 298 297 295 294 294 296 297 297 296 294 291 289 288 286 286 285 283 284 285 284 284 285
295 293 291 291 294 295 298 299 299 297 297 297 299 305 305 307 304 302 297 296 294 292 291 290 289 288 288 289 291 294 294 292 290 287 286 285 284 284 284 282 281 284 283 284

GFSCGP_sfc_thetae_087.txt.gz
Theta_e
298 293 293 297 298 299 299 298 298 303 307 303 302 303 305 308 308 308 310 312 315 319 322 325 327 326 327 326 323 322 320 320 322 320 318 317 317 318 317 317 318 319 320 319
297 291 298 301 299 298 298 297 297 301 305 303 301 302 305 308 308 308 309 312 314 318 321 324 326 325 326 325 324 321 320 321 321 321 319 318 317 317 317 318 319 319 318 318
296 298 300 298 296 295 296 296 297 297 302 304 301 299 302 307 309 309 309 312 313 316 320 322 324 324 323 323 322 321 321 321 323 322 321 319 319 319 318 317 316 318 318 317
298 301 299 298 296 297 293 300 299 298 297 293 302 292 301 305 305 307 308 311 313 315 320 323 324 324 324 325 323 324 322 320 322 323 320 317 314 313 316 315 315 318 321 319
295 297 296 295 297 298 296 301 298 299 297 296 297 294 299 304 303 305 309 311 314 316 319 323 325 325 326 327 322 323 322 320 321 322 320 318 315 314 315 316 317 320 322 322
297 303 299 298 299 300 301 298 298 298 296 290 296 296 297 301 303 306 309 310 312 315 319 322 326 327 327 327 325 323 321 320 321 321 320 318 317 315 316 315 316 318 319 320
292 293 299 300 295 299 297 294 289 288 289 288 298 296 299 304 306 307 308 310 312 315 317 321 325 325 326 325 323 321 320 319 320 320 321 320 318 317 318 316 316 314 315 317
286 285 291 298 296 295 295 294 288 284 288 292 299 293 298 306 308 309 310 311 313 315 317 320 324 325 325 325 323 320 319 319 320 320 321 322 321 318 319 320 317 314 315 317
289 289 297 294 296 296 295 292 297 292 295 291 295 299 304 306 307 308 309 310 311 313 316 319 323 326 326 326 324 322 319 320 321 321 321 321 322 323 321 320 319 316 316 316
295 289 295 295 298 296 293 297 289 292 285 284 291 293 295 301 304 307 308 309 312 313 315 319 321 326 327 326 326 324 323 322 322 322 322 323 324 324 325 324 321 322 319 321
298 294 292 295 293 292 292 291 294 294 292 286 286 292 304 303 306 306 308 310 312 314 315 318 321 325 327 326 326 324 323 322 324 322 323 323 323 326 327 326 325 325 323 324
299 296 289 291 298 300 298 295 294 289 289 293 292 292 305 306 307 309 309 311 312 315 317 318 322 324 325 325 326 324 323 322 326 327 325 324 323 324 324 327 328 328 326 327
295 293 287 289 293 297 294 296 297 296 295 291 290 292 306 306 308 308 309 311 312 313 317 319 321 322 324 325 325 324 323 324 325 326 328 328 327 326 326 327 329 329 328 327
296 290 288 285 289 295 292 294 296 295 291 291 292 295 300 303 305 306 308 311 312 312 313 317 320 321 323 324 325 325 325 326 326 324 325 326 328 328 328 328 326 326 326 326
294 287 289 290 291 292 293 293 294 293 294 291 294 295 299 302 304 307 309 310 310 310 311 313 318 321 322 323 325 326 326 326 326 324 324 325 328 327 327 328 328 326 324 326
295 288 291 289 292 292 290 293 294 295 295 295 296 296 303 305 307 307 306 308 309 310 311 312 314 319 322 322 323 326 326 327 326 325 325 324 325 325 327 327 327 327 327 326
291 289 287 284 290 291 287 292 294 295 298 297 293 298 303 303 305 306 307 308 308 310 311 312 313 314 318 323 324 324 325 328 326 325 324 323 323 323 325 324 323 324 324 325
290 289 287 285 287 278 290 299 297 296 297 302 301 301 303 304 306 308 309 309 310 311 312 313 313 314 316 319 324 325 325 325 326 325 324 324 323 322 322 322 322 324 324 323
293 289 285 283 284 287 290 295 294 292 292 303 303 302 303 305 306 306 310 311 311 313 315 315 316 317 315 315 319 324 324 324 323 323 324 324 324 323 323 323 323 324 322 310
294 293 288 286 281 280 292 298 301 300 291 300 304 306 304 305 300 303 312 313 314 315 316 316 317 316 316 315 318 319 321 322 321 323 322 324 324 323 323 323 314 309 304 296
288 288 284 285 283 288 297 301 303 288 290 299 301 306 305 304 307 309 312 313 314 315 314 316 316 315 316 317 317 317 319 321 322 323 323 323 322 321 312 304 300 295 291 290
287 285 285 286 283 281 300 299 293 296 302 301 303 304 305 306 309 309 312 312 313 313 313 313 311 311 314 317 317 316 314 312 312 308 304 302 300 299 298 294 292 290 290 286
287 290 289 289 289 298 300 301 301 301 300 302 303 305 306 306 308 309 311 312 311 309 309 308 305 303 303 308 309 303 302 302 300 297 295 294 293 293 292 291 290 288 286 284
293 297 291 291 294 296 299 301 301 301 300 301 303 308 308 308 309 309 311 310 307 304 303 301 299 296 296 298 299 299 297 295 293 290 289 289 288 288 289 289 288 286 285 283
294 295 293 292 296 298 298 299 299 300 301 299 301 306 305 309 310 310 307 302 299 296 295 295 293 291 290 294 294 294 293 292 289 288 287 285 284 284 283 283 284 283 283 284
296 293 292 291 296 296 297 300 298 298 298 297 297 299 301 303 303 300 294 291 290 289 290 289 288 288 287 287 287 291 291 290 287 285 284 284 283 282 282 281 281 283 283 283

GFSCGP_sfc_thetae_090.txt.gz
Theta_e
297 292 289 293 296 297 297 296 296 299 304 302 302 303 304 307 309 308 309 310 311 314 320 324 326 326 326 326 323 320 320 322 322 318 316 315 314 315 316 317 317 317 317 317
296 290 295 296 297 297 296 294 294 298 302 301 301 301 304 306 307 308 308 308 311 313 317 322 325 325 325 324 322 320 320 322 321 319 318 316 315 314 315 316 316 316 316 317
295 297 298 296 293 293 296 294 294 294 300 302 300 298 301 305 307 309 310 311 310 313 316 320 323 323 325 322 320 320 319 321 321 320 318 317 315 314 312 313 314 315 316 317
298 300 298 297 295 295 292 298 297 296 294 290 300 290 299 303 305 307 309 310 310 312 317 321 323 323 323 324 321 320 321 321 321 319 316 314 311 310 312 312 313 315 317 316
294 296 295 294 295 298 294 299 297 297 294 294 294 292 296 302 301 304 308 309 310 314 315 320 323 324 324 324 321 320 321 321 321 319 317 314 312 313 314 314 313 313 314 315
296 301 299 298 299 299 301 297 297 296 294 286 293 293 293 297 302 306 308 309 311 313 315 321 324 325 324 325 322 320 319 319 321 320 318 315 313 313 313 312 312 313 314 316
291 293 297 300 295 298 297 294 286 284 284 285 295 293 296 302 305 307 308 309 313 313 315 318 323 323 323 324 321 320 319 317 320 320 319 316 314 314 313 312 312 312 314 317
287 284 293 298 296 293 294 293 287 280 283 287 296 291 296 305 307 309 309 311 313 313 316 318 323 323 324 324 322 319 319 318 319 320 320 318 316 315 315 314 314 314 314 315
289 288 296 296 296 297 294 290 296 290 291 287 291 296 302 306 305 307 308 309 310 313 315 316 322 324 324 324 322 320 319 319 319 319 320 320 318 316 316 315 316 315 315 316
294 288 296 295 295 296 294 298 289 290 281 280 287 291 293 301 303 306 307 309 311 312 313 316 320 324 325 325 323 321 319 319 319 319 320 320 320 319 318 318 315 316 315 315
299 293 291 295 290 289 290 288 290 290 289 284 283 289 302 302 304 306 308 310 312 313 314 316 319 325 325 326 323 321 320 319 319 320 320 320 320 320 318 318 319 317 316 315
297 294 288 291 297 298 296 290 290 285 286 291 289 288 302 304 306 309 308 311 313 314 315 316 319 324 324 324 324 322 321 320 320 320 320 320 321 321 320 319 319 320 318 317
293 290 285 288 292 296 293 295 295 293 292 288 286 290 302 306 305 308 308 311 312 314 316 317 319 322 324 324 324 322 322 321 322 321 321 320 321 321 321 321 321 321 320 318
295 289 286 283 286 292 290 294 294 294 289 290 290 292 297 301 302 304 307 311 312 312 314 317 319 320 323 324 324 324 322 322 322 323 321 320 320 321 322 323 323 323 322 321
293 286 288 289 289 290 289 290 293 292 293 289 292 293 297 300 302 304 307 308 310 310 311 314 317 319 321 323 324 325 323 322 322 322 322 321 322 322 322 322 323 324 324 323
295 288 290 287 290 290 288 290 291 292 293 293 294 294 301 303 304 304 307 308 307 309 310 312 314 318 320 322 324 325 324 323 323 322 321 323 324 324 322 322 322 322 322 323
291 289 287 283 289 288 285 290 291 291 294 294 291 297 302 302 302 303 306 308 308 309 311 312 312 314 317 321 323 324 325 325 323 322 322 323 323 323 323 324 324 322 321 321
289 288 288 283 286 277 289 295 298 294 296 298 298 299 301 305 304 305 308 307 309 311 312 313 314 315 315 316 322 324 326 325 323 322 322 323 322 322 322 322 322 322 322 321
293 289 285 282 282 286 289 292 294 293 293 299 299 301 304 307 305 305 311 312 312 313 314 314 316 316 316 316 315 322 323 324 324 322 322 322 322 321 321 320 320 320 319 319
293 292 287 285 279 278 291 297 301 299 289 299 298 298 300 304 299 304 311 313 313 314 314 314 316 316 316 316 315 315 321 321 321 323 323 323 323 321 319 319 317 307 300 295
287 287 284 284 281 286 295 297 299 288 289 300 301 299 301 299 301 306 311 312 313 313 313 314 313 312 312 315 317 315 316 317 321 322 319 314 314 313 306 300 297 295 291 289
285 284 284 285 282 279 300 298 291 295 301 301 301 300 301 305 306 307 307 311 310 309 309 308 307 304 305 309 312 307 304 306 306 303 300 300 300 298 296 293 291 290 288 286
286 290 288 288 288 298 297 298 299 300 298 298 298 300 305 305 307 308 309 308 304 303 301 301 299 297 297 299 301 301 298 298 297 295 294 294 293 292 293 291 290 287 285 283
293 297 292 290 294 297 298 300 299 300 299 298 298 299 302 303 305 305 303 300 297 294 292 293 292 290 289 293 293 293 293 293 291 290 288 288 287 287 288 287 287 285 284 282
293 295 293 292 295 297 297 297 297 297 298 297 298 298 299 300 299 295 292 291 290 290 289 288 288 288 288 289 289 290 290 289 286 286 285 284 283 283 283 283 283 282 283 283
292 290 290 289 293 294 294 294 295 295 295 296 296 295 297 295 293 291 287 286 286 285 286 286 286 286 286 287 287 287 287 287 285 283 283 282 282 281 281 280 280 283 282 283

GFSCGP_sfc_thetae_093.txt.gz
Theta_e
292 286 284 287 290 293 293 292 291 294 297 297 296 296 299 303 302 300 301 302 302 304 313 318 320 319 319 319 317 317 318 321 319 318 316 315 314 315 316 319 321 323 325 324
289 286 290 292 292 291 290 289 289 293 297 297 295 295 299 302 301 302 301 301 302 303 312 318 318 319 319 317 317 317 318 321 319 318 317 316 315 315 315 316 316 318 320 321
289 293 296 292 290 288 288 288 290 291 294 295 295 293 296 301 303 304 304 304 303 305 312 317 317 318 317 316 315 317 319 320 319 318 316 315 314 314 312 312 313 315 317 319
294 298 297 293 290 291 285 291 291 293 291 285 296 284 294 298 299 303 304 304 304 302 315 317 317 317 316 316 317 317 319 320 319 318 315 312 311 309 312 312 312 314 316 316
291 293 292 292 292 294 290 293 292 294 290 289 291 288 290 297 297 301 302 304 305 303 316 317 317 318 317 317 316 317 319 320 318 317 315 312 310 311 312 312 311 313 314 316
291 295 293 293 296 296 297 295 295 293 292 283 289 289 287 293 297 301 304 305 304 303 315 318 319 319 317 317 316 317 319 319 318 316 315 311 309 310 310 310 311 311 313 313
287 289 292 295 290 295 293 290 282 281 282 280 292 289 290 297 301 302 303 305 304 306 314 317 317 317 317 315 315 316 318 318 318 316 314 313 313 312 311 310 312 310 311 312
281 280 288 293 291 290 292 291 283 278 280 284 292 287 293 302 304 306 306 304 305 305 315 318 318 318 318 316 315 316 317 318 318 317 315 313 314 314 313 311 312 312 311 311
285 285 294 293 293 295 291 288 294 288 289 285 288 291 297 302 304 305 303 303 303 306 313 318 318 319 319 316 316 316 316 317 319 318 316 314 314 314 313 312 311 313 313 313
292 285 294 295 294 295 292 296 287 288 279 277 284 287 289 296 301 303 303 302 303 307 312 318 319 319 320 318 317 316 317 317 318 319 319 316 315 315 314 314 311 313 313 314
295 290 290 295 288 287 288 288 291 289 287 280 280 285 298 299 301 302 304 304 305 305 306 312 319 320 321 319 317 316 316 317 317 318 319 319 317 316 315 315 313 315 314 315
291 291 286 289 296 297 291 289 288 282 282 285 285 285 302 300 303 304 305 306 307 306 307 309 320 320 320 319 317 316 316 317 318 319 319 319 319 318 315 315 315 314 314 314
290 286 282 285 290 295 292 292 291 289 288 283 281 285 299 300 303 305 305 306 308 308 308 310 319 319 320 319 317 317 316 316 317 318 318 318 319 318 316 315 316 316 315 313
294 287 284 280 284 288 286 289 292 291 285 284 285 287 293 297 300 304 305 306 305 307 308 310 318 319 320 320 319 318 317 317 317 318 318 317 318 319 318 316 316 317 317 315
291 283 286 287 289 289 288 287 288 287 291 287 289 290 294 297 298 300 303 304 305 306 307 310 312 318 319 319 319 319 318 318 318 317 317 316 318 318 319 319 318 317 317 317
295 286 288 286 290 290 287 289 289 289 289 290 291 290 298 301 302 304 305 304 304 305 307 308 310 314 320 320 320 320 319 318 319 319 317 318 318 318 319 319 320 319 318 318
289 287 283 281 288 287 282 287 289 290 291 290 286 294 300 300 302 303 304 307 305 306 308 310 311 311 311 314 320 320 320 320 319 318 320 319 319 318 318 319 319 319 319 320
288 287 284 280 283 273 287 293 293 294 295 296 296 297 299 299 302 305 306 305 308 309 309 310 311 311 311 312 312 314 321 320 319 318 318 320 320 319 319 319 318 318 318 318
291 287 279 278 278 284 288 294 293 291 291 296 295 296 298 301 302 303 305 307 309 309 310 310 311 310 310 310 313 313 315 321 319 318 319 319 320 320 320 319 319 319 319 317
291 289 283 280 278 274 289 294 299 297 286 298 298 297 297 298 294 297 304 308 307 306 307 306 305 304 302 303 309 310 307 311 316 319 320 320 319 319 319 318 314 302 303 294
284 284 280 279 279 283 294 296 299 286 286 297 298 298 299 295 300 304 308 306 305 302 301 302 301 298 298 299 305 301 301 300 302 302 315 318 317 318 313 303 299 295 291 289
283 282 280 280 280 277 295 295 290 292 296 295 295 297 300 302 304 308 304 299 298 296 296 297 296 294 295 295 298 295 294 297 298 298 298 299 302 300 298 295 293 292 289 286
282 287 282 284 283 293 296 294 297 297 293 293 294 297 298 298 297 297 296 294 292 292 291 293 292 291 292 293 292 290 290 292 293 292 292 292 294 295 295 291 288 287 287 285
292 295 290 287 293 295 295 296 296 296 295 294 295 296 296 294 293 292 291 290 289 289 288 290 290 289 289 290 290 289 288 288 286 285 286 287 287 286 287 288 288 286 285 283
291 292 292 291 293 293 292 293 293 294 295 295 295 294 292 291 289 288 286 286 286 286 286 286 285 285 285 288 288 288 287 286 284 283 283 282 283 282 281 282 282 282 282 283
290 286 286 284 287 291 289 291 293 291 291 293 292 291 289 288 286 285 283 283 283 283 283 283 283 283 283 284 285 287 288 286 284 282 281 280 280 280 281 280 280 283 282 283